Date String (YYYY-MM-DD hh:mm:ss) UTC,Instrument flags,absolute air pressure of the measurement (hPa),sample flow rate (lpm),inlet stack bypass flow (lpm),air temperature of the measurement (°C),ambient temperature measured by the external sensor (°C),aerosol sample conditioner tube jacket temperature (°C),OPC LED temperature (°C),internal box temperature (°C),relative humidity of the measurement (%),span deviation,mass concentration of particles derived from Lorenz-Mie calculation of OPC scattering (μg/m³),mass concentration of particles derived from Lorenz-Mie calculation of OPC scattering (μg/m³),mass concentration of particles derived from Lorenz-Mie calculation of OPC scattering (μg/m³)
DateTimeUTC,F1_M11,P_M11,Q1_M11,Q2_M11,T1_M11,T2_M11,T3_M11,T4_M11,T5_M11,U1_M11,ZSPAN_M11,X0_M11,X2_M11,X1_M11
2023-12-23 03:00:00,SystemResetWarning,0826.9,5.00,000.00,026.1,025.1,000.0,034.4,027.5,11.2,0000.0,0014.38,0006.50,0005.61
2023-12-23 03:01:00,SystemResetWarning,0826.9,5.02,000.00,026.1,025.1,000.0,034.4,027.5,11.2,0000.0,0014.59,0006.45,0005.54
2023-12-23 03:02:00,SystemResetWarning,0826.9,4.99,000.00,026.1,025.1,000.0,034.4,027.5,11.2,0001.6,0014.38,0006.49,0005.52
2023-12-23 03:03:00,SystemResetWarning,0826.9,4.99,000.00,026.1,025.1,000.0,034.4,027.5,11.2,0004.2,0013.85,0006.45,0005.50
2023-12-23 03:04:00,SystemResetWarning,0826.9,5.01,000.00,026.1,025.0,000.0,034.4,027.5,11.2,0004.1,0013.45,0006.33,0005.45
2023-12-23 03:05:00,SystemResetWarning,0826.9,5.01,000.00,026.1,025.0,000.0,034.4,027.4,11.2,0002.3,0013.28,0006.24,0005.37
2023-12-23 03:06:00,SystemResetWarning,0826.9,4.99,000.00,026.1,025.0,000.0,034.4,027.4,11.2,0002.8,0013.48,0006.20,0005.32
2023-12-23 03:07:00,SystemResetWarning,0826.9,4.99,000.00,026.1,025.0,000.0,034.4,027.4,11.2,0000.8,0014.36,0006.12,0005.27
2023-12-23 03:08:00,SystemResetWarning,0826.9,4.99,000.00,026.1,025.0,000.0,034.4,027.4,11.2,0000.0,0015.15,0006.06,0005.22
2023-12-23 03:09:00,SystemResetWarning,0826.9,5.00,000.00,026.1,025.0,000.0,034.4,027.4,11.2,0000.0,0014.45,0005.97,0005.14
2023-12-23 03:10:00,SystemResetWarning,0826.9,5.00,000.00,026.0,024.9,000.0,034.4,027.4,11.3,0000.0,0013.63,0005.91,0005.08
2023-12-23 03:11:00,SystemResetWarning,0826.9,5.02,000.00,026.0,024.9,000.0,034.4,027.4,11.3,0000.0,0013.19,0005.85,0005.07
2023-12-23 03:12:00,SystemResetWarning,0826.9,5.00,000.00,026.0,024.9,000.0,034.4,027.4,11.3,0000.0,0012.83,0005.86,0005.09
2023-12-23 03:13:00,SystemResetWarning,0826.9,5.00,000.00,026.0,024.9,000.0,034.4,027.4,11.3,0000.0,0013.26,0005.81,0005.10
2023-12-23 03:14:00,SystemResetWarning,0826.8,4.99,000.00,026.0,024.9,000.0,034.4,027.4,11.3,0000.0,0013.38,0005.80,0005.12
2023-12-23 03:15:00,SystemResetWarning,0826.8,5.01,000.00,026.0,024.8,000.0,034.4,027.3,11.4,0000.0,0013.36,0005.82,0005.13
2023-12-23 03:16:00,SystemResetWarning,0826.7,5.01,000.00,026.0,024.8,000.0,034.4,027.3,11.3,0000.0,0013.60,0005.85,0005.14
2023-12-23 03:17:00,SystemResetWarning,0826.8,5.00,000.00,026.0,024.8,000.0,034.3,027.3,11.3,0000.0,0013.83,0005.83,0005.16
2023-12-23 03:18:00,SystemResetWarning,0826.8,5.00,000.00,026.0,024.8,000.0,034.3,027.3,11.4,0000.0,0013.38,0005.83,0005.16
2023-12-23 03:19:00,SystemResetWarning,0826.8,4.99,000.00,025.9,024.8,000.0,034.3,027.3,11.4,0000.0,0012.07,0005.82,0005.16
2023-12-23 03:20:00,SystemResetWarning,0826.8,4.98,000.00,025.9,024.8,000.0,034.3,027.3,11.4,0000.0,0012.33,0005.84,0005.19
2023-12-23 03:21:00,SystemResetWarning,0826.8,5.01,000.00,025.9,024.7,000.0,034.3,027.3,11.4,0000.0,0012.50,0005.87,0005.22
2023-12-23 03:22:00,SystemResetWarning,0826.8,5.00,000.00,025.9,024.7,000.0,034.3,027.3,11.4,0000.0,0013.23,0005.97,0005.29
2023-12-23 03:23:00,SystemResetWarning,0826.8,5.00,000.00,025.9,024.7,000.0,034.3,027.3,11.4,0000.0,0014.10,0006.06,0005.32
2023-12-23 03:24:00,SystemResetWarning,0826.8,5.01,000.00,025.9,024.7,000.0,034.3,027.2,11.4,0000.0,0013.78,0006.08,0005.36
2023-12-23 03:25:00,SystemResetWarning,0826.8,5.00,000.00,025.9,024.7,000.0,034.3,027.2,11.4,0000.0,0013.95,0006.13,0005.42
2023-12-23 03:26:00,SystemResetWarning,0826.7,4.99,000.00,025.9,024.7,000.0,034.3,027.3,11.4,0000.0,0014.07,0006.19,0005.46
2023-12-23 03:27:00,SystemResetWarning,0826.6,4.99,000.00,025.9,024.7,000.0,034.3,027.3,11.4,0000.0,0013.94,0006.20,0005.50
2023-12-23 03:28:00,SystemResetWarning,0826.6,5.00,000.00,025.9,024.7,000.0,034.2,027.3,11.4,0000.0,0013.90,0006.26,0005.52
2023-12-23 03:29:00,SystemResetWarning,0826.6,5.00,000.00,025.8,024.7,000.0,034.2,027.3,11.4,0000.0,0013.72,0006.27,0005.52
2023-12-23 03:30:00,SystemResetWarning,0826.6,5.00,000.00,025.8,024.6,000.0,034.2,027.2,11.4,0000.0,0013.87,0006.29,0005.52
2023-12-23 03:31:00,SystemResetWarning,0826.6,5.01,000.00,025.8,024.6,000.0,034.2,027.2,11.4,0000.0,0013.37,0006.27,0005.52
2023-12-23 03:32:00,SystemResetWarning,0826.6,5.00,000.00,025.8,024.6,000.0,034.2,027.2,11.4,0000.0,0013.19,0006.23,0005.46
2023-12-23 03:33:00,SystemResetWarning,0826.7,4.98,000.00,025.8,024.6,000.0,034.2,027.2,11.4,0000.0,0012.52,0006.03,0005.29
2023-12-23 03:34:00,SystemResetWarning,0826.6,5.00,000.00,025.8,024.6,000.0,034.2,027.1,11.4,0000.0,0011.67,0005.78,0005.13
2023-12-23 03:35:00,SystemResetWarning,0826.6,5.02,000.00,025.8,024.6,000.0,034.2,027.1,11.4,0000.0,0011.41,0005.61,0004.97
2023-12-23 03:36:00,SystemResetWarning,0826.6,4.99,000.00,025.8,024.6,000.0,034.2,027.1,11.4,0000.0,0010.52,0005.42,0004.80
2023-12-23 03:37:00,SystemResetWarning,0826.6,4.99,000.00,025.8,024.6,000.0,034.2,027.1,11.5,0000.0,0010.16,0005.17,0004.60
2023-12-23 03:38:00,SystemResetWarning,0826.6,5.00,000.00,025.7,024.6,000.0,034.2,027.0,11.4,0000.0,0009.98,0005.01,0004.43
2023-12-23 03:39:00,SystemResetWarning,0826.6,5.01,000.00,025.7,024.6,000.0,034.2,027.0,11.5,0000.0,0009.80,0004.82,0004.27
2023-12-23 03:40:00,SystemResetWarning,0826.6,5.01,000.00,025.7,024.6,000.0,034.1,027.0,11.5,0000.0,0009.29,0004.62,0004.10
2023-12-23 03:41:00,SystemResetWarning,0826.6,4.98,000.00,025.7,024.6,000.0,034.1,027.1,11.4,0000.0,0009.07,0004.38,0003.90
2023-12-23 03:42:00,SystemResetWarning,0826.6,5.00,000.00,025.7,024.5,000.0,034.1,027.1,11.4,0000.0,0008.71,0004.19,0003.73
2023-12-23 03:43:00,SystemResetWarning,0826.5,5.01,000.00,025.7,024.5,000.0,034.1,027.1,11.4,0000.0,0008.30,0004.00,0003.57
2023-12-23 03:44:00,SystemResetWarning,0826.4,5.01,000.00,025.7,024.5,000.0,034.1,027.1,11.4,0000.0,0008.16,0003.94,0003.51
2023-12-23 03:45:00,SystemResetWarning,0826.3,4.99,000.00,025.7,024.5,000.0,034.1,027.1,11.4,0000.0,0007.82,0003.92,0003.47
2023-12-23 03:46:00,SystemResetWarning,0826.4,4.99,000.00,025.7,024.5,000.0,034.1,027.1,11.4,0000.0,0007.76,0003.95,0003.48
2023-12-23 03:47:00,SystemResetWarning,0826.4,5.01,000.00,025.7,024.5,000.0,034.1,027.1,11.4,0000.0,0007.87,0004.01,0003.53
2023-12-23 03:48:00,SystemResetWarning,0826.4,5.01,000.00,025.7,024.5,000.0,034.1,027.1,11.4,0000.0,0007.88,0003.96,0003.46
2023-12-23 03:49:00,SystemResetWarning,0826.4,4.99,000.00,025.7,024.5,000.0,034.1,027.1,11.4,0000.0,0007.59,0003.78,0003.33
2023-12-23 03:50:00,SystemResetWarning,0826.4,4.99,000.00,025.7,024.5,000.0,034.1,027.1,11.4,0000.0,0007.08,0003.66,0003.24
2023-12-23 03:51:00,SystemResetWarning,0826.4,5.01,000.00,025.7,024.5,000.0,034.1,027.1,11.4,0000.0,0006.97,0003.56,0003.15
2023-12-23 03:52:00,SystemResetWarning,0826.4,5.01,000.00,025.7,024.5,000.0,034.1,027.1,11.4,0000.0,0006.85,0003.55,0003.13
2023-12-23 03:53:00,SystemResetWarning,0826.4,5.00,000.00,025.7,024.5,000.0,034.0,027.0,11.4,0000.0,0007.10,0003.55,0003.11
2023-12-23 03:54:00,SystemResetWarning,0826.4,4.99,000.00,025.7,024.5,000.0,034.0,027.0,11.4,0000.0,0006.95,0003.55,0003.11
2023-12-23 03:55:00,SystemResetWarning,0826.4,5.01,000.00,025.6,024.4,000.0,034.0,026.9,11.4,0000.0,0006.75,0003.50,0003.06
2023-12-23 03:56:00,SystemResetWarning,0826.4,5.00,000.00,025.6,024.4,000.0,034.0,026.9,11.5,0000.0,0006.55,0003.41,0002.92
2023-12-23 03:57:00,SystemResetWarning,0826.3,4.99,000.00,025.6,024.4,000.0,034.0,026.9,11.5,0000.0,0005.69,0003.28,0002.73
2023-12-23 03:58:00,SystemResetWarning,0826.3,5.00,000.00,025.6,024.4,000.0,034.0,026.9,11.5,0000.0,0005.17,0003.12,0002.49
2023-12-23 03:59:00,SystemResetWarning,0826.3,5.02,000.00,025.6,024.4,000.0,034.0,026.9,11.5,0000.0,0005.07,0003.03,0002.43
